Regional Weather Roundup
Issued by NWS Sterling, VA

Home | Current Version | Previous Version | Text Only | Print | Product List | Glossary On
Versions: 1 2 3 4 5 6 7 8 9 10 11 12 13 14 15 16 17 18 19 20 21 22 23 24 25 26 27
000
ASUS41 KLWX 250011
RWRLWX

REGIONAL WEATHER ROUNDUP
NATIONAL WEATHER SERVICE BALTIMORE MD/WASHINGTON DC
800 PM EDT SAT SEP 24 2016

Note: "FAIR" indicates few or no clouds below 12,000 feet
with no significant weather and/or obstructions to visibility.
 TC=TEMPERATURE CELSIUS

 * =Non NWS site. Station does not report precipitation (e.g. rain,
    snow, etc.), thunder, or fog.

DCZ001-MDZ009-015-VAZ040>042-051-053>054-250100-
WASHINGTON METRO

CITY           SKY/WX    TMP DP  RH WIND       PRES   REMARKS
WASHINGTON NAT PTCLDY    69  62  78 E7        30.11R
DULLES         PTCLDY    66  60  81 E6        30.11R
ANDREWS AFB    CLEAR     65  60  83 E3        30.11R
FT BELVOIR     CLOUDY    68  61  78 VRB2      30.10S
QUANTICO         N/A     72  63  73 E8        30.11R
COLLEGE PARK*  CLEAR     63  59  88 CALM      30.11S
LEESBURG*      PTCLDY    70  63  78 SE3       30.12S
MANASSAS*      CLOUDY    72  63  73 E3        30.11R
GAITHERSBURG*  MOCLDY    63  55  77 CALM      30.16R

$$

MDZ006>007-011-014-250100-
BALTIMORE METRO

CITY           SKY/WX    TMP DP  RH WIND       PRES   REMARKS
BWI AIRPORT    PTCLDY    64  58  80 CALM      30.11R
MD SCIENCE CTR   N/A     69  58  67 MISG      30.12R
MARTIN STATE   CLEAR     64  63  94 CALM      30.12S
ANNAPOLIS      PTCLDY    69  62  78 E5        30.11R
FORT MEADE*    CLEAR     61  59  94 CALM      30.14R

$$

MDZ012-015-019>023-250100-
MARYLAND EASTERN SHORE

CITY           SKY/WX    TMP DP  RH WIND       PRES   REMARKS
OCEAN CITY     LGT RAIN  66  62  87 NE9G18    30.10R
SALISBURY      CLOUDY    65  62  90 NE6       30.11R
BAY BRIDGE AP* CLEAR     64  59  82 MISG      30.11S
CAMBRIDGE*     CLOUDY    63  59  88 CALM      30.11S
EASTON*        MOCLDY    64  59  82 CALM      30.15R

$$

MDZ017>025-250100-
SOUTHERN MARYLAND

CITY           SKY/WX    TMP DP  RH WIND       PRES   REMARKS
PATUXENT RIVER CLOUDY    68  61  78 NE9       30.10R
ST INIGOES     CLOUDY    68  63  84 NE6       30.09S
LEONARDTOWN*   CLOUDY    68  61  77 CALM      30.12S

$$

MDZ003>005-250100-
NORTH CENTRAL MARYLAND

CITY           SKY/WX    TMP DP  RH WIND       PRES   REMARKS
FREDERICK*     CLEAR     64  61  88 CALM      30.14R
HAGERSTOWN APT CLEAR     69  46  43 N6        30.12R

$$

MDZ501>502-250100-
WESTERN MARYLAND

CITY           SKY/WX    TMP DP  RH WIND       PRES   REMARKS
OAKLAND*       CLEAR     55  55 100 CALM      30.20S FOG
CUMBERLAND*    CLEAR     70  55  60 N7        30.17R

$$

VAZ025>031-250100-
SHENANDOAH VALLEY

CITY           SKY/WX    TMP DP  RH WIND       PRES   REMARKS
WINCHESTER*    MOCLDY    64  57  77 CALM      30.11S
FRONT ROYAL*   FAIR      66  59  77 CALM      30.11S
LURAY*         CLOUDY    70  61  73 N6        30.12R
NEW MARKET*    MOCLDY   N/A N/A N/A N6        30.10S
STAUNTON*      MOCLDY    71  62  72 NE9       30.12R
WAYNESBORO*    FAIR      73  65  77 NE6       30.11R

$$

WVZ021-048>050-054>055-250100-
EASTERN WEST VIRGINIA PANHANDLE

CITY           SKY/WX    TMP DP  RH WIND       PRES   REMARKS
MARTINSBURG    MOCLDY    70  54  56 N6        30.11R
PETERSBURG*    CLOUDY    74  62  65 NE5       30.11R

$$

VAZ036>039-050-250100-
CENTRAL FOOTHILLS

CITY           SKY/WX    TMP DP  RH WIND       PRES   REMARKS
CHARLOTTESVILL CLOUDY    76  64  66 NE9       30.09R
CULPEPER*      CLOUDY    72  65  80 CALM      30.11S
ORANGE*          N/A     72  68  88 CALM      30.11R
GORDONSVILLE*  CLOUDY    73  66  78 NE6       30.09R
WARRENTON*     CLOUDY    71  59  66 E5        30.10S

$$

VAZ055>057-250100-
NORTH AND CENTRAL PIEDMONT

CITY           SKY/WX    TMP DP  RH WIND       PRES   REMARKS
FREDERICKSBRG* MOCLDY    72  66  83 NE5       30.09S
STAFFORD*      MOCLDY    70  64  82 CALM      30.14S

$$

NCZ024-NYZ072-PAZ021-071-VAZ022-071-250100-
OTHER REGIONAL OBSERVATIONS

CITY           SKY/WX    TMP DP  RH WIND       PRES   REMARKS
NEW YORK CITY  CLEAR     63  45  51 CALM      30.13R
PHILADELPHIA   PTCLDY    67  55  65 S7        30.11R
PITTSBURGH     CLEAR     67  52  58 N8        30.16R
ROANOKE        MOCLDY    80  62  54 NW6       30.08R
RICHMOND       MOCLDY    71  64  78 NE7       30.07R
RALEIGH        PTCLDY    76  71  85 CALM      30.03S

$$

ANZ530>537-250100-
MARINE OBSERVATIONS

STATION/POSITION TIME  TEMP    WIND        PRES
                       AIR SEA DIR/SP/G
                 (UTC) (F)     (DEG/KT/KT) (MB)
THOMAS PT LIGHT  0000   67 76  100/  9/ 10 1021.0R
BALT KEY BRIDGE  2348           70/  6/  8 1019.6R
COVE POINT       2348           80/ 10/ 12 1020.1R
LEWISETTA        2348      77   70/ 12/ 15 1018.7R
SOLOMONS ISLAND  2348      77   40/ 11/ 14   N/A
PINEY POINT      2342           70/  6/  8   N/A

$$





USA.gov is the U.S. government's official web portal to all federal, state and local government web resources and services.